Time,TemperatureF,DewpointF,PressureIn,WindDirection,WindDirectionDegrees,WindSpeedMPH,WindSpeedGustMPH,Humidity,HourlyPrecipIn,Conditions,Clouds,dailyrainin,SoftwareType,DateUTC
2013-03-08 10:00:00,29.9,28.4,29.51,North,0,0.0,0.0,94,0.00,,,0.00,WUHU216HW,2013-03-08 15:00:00,
2013-03-08 10:05:00,29.9,28.4,29.51,North,0,0.0,0.0,94,0.00,,,0.00,WUHU216HW,2013-03-08 15:05:00,
2013-03-08 10:30:00,29.9,28.4,29.51,North,0,0.0,0.0,94,0.00,,,0.00,WUHU216HW,2013-03-08 15:30:00,
2013-03-08 10:35:00,29.9,28.4,29.51,North,0,0.0,0.0,94,0.00,,,0.00,WUHU216HW,2013-03-08 15:35:00,
2013-03-08 11:00:00,30.2,28.7,29.51,North,0,0.0,0.0,94,0.00,,,0.00,WUHU216HW,2013-03-08 16:00:00,
2013-03-08 14:00:00,34.6,30.7,29.52,North,0,0.0,0.0,86,0.00,,,0.00,WUHU216HW,2013-03-08 19:00:00,
2013-03-08 14:05:00,34.6,30.7,29.52,North,0,0.0,0.0,86,0.00,,,0.00,WUHU216HW,2013-03-08 19:05:00,
2013-03-08 14:30:00,35.6,30.6,29.53,North,0,0.0,0.0,82,0.00,,,0.00,WUHU216HW,2013-03-08 19:30:00,
2013-03-08 14:35:00,35.6,30.6,29.53,North,0,0.0,0.0,82,0.00,,,0.00,WUHU216HW,2013-03-08 19:35:00,
2013-03-08 15:00:00,36.9,30.7,29.54,North,0,0.0,0.0,78,0.00,,,0.00,WUHU216HW,2013-03-08 20:00:00,
2013-03-08 15:05:00,36.9,30.7,29.54,North,0,0.0,0.0,78,0.00,,,0.00,WUHU216HW,2013-03-08 20:05:00,
2013-03-08 15:30:00,37.8,30.0,29.54,North,0,0.0,0.0,73,0.00,,,0.00,WUHU216HW,2013-03-08 20:30:00,
2013-03-08 15:35:00,37.8,30.0,29.54,North,0,0.0,0.0,73,0.00,,,0.00,WUHU216HW,2013-03-08 20:35:00,
2013-03-08 16:00:00,38.9,29.9,29.55,North,0,0.0,0.0,70,0.00,,,0.00,WUHU216HW,2013-03-08 21:00:00,
2013-03-08 16:05:00,38.9,29.9,29.55,North,0,0.0,0.0,70,0.00,,,0.00,WUHU216HW,2013-03-08 21:05:00,
2013-03-08 16:30:00,39.4,29.7,29.56,North,0,0.0,0.0,68,0.00,,,0.00,WUHU216HW,2013-03-08 21:30:00,
2013-03-08 16:35:00,39.4,29.7,29.56,North,0,0.0,0.0,68,0.00,,,0.00,WUHU216HW,2013-03-08 21:35:00,
2013-03-08 17:00:00,39.2,29.5,29.57,North,0,0.0,0.0,68,0.00,,,0.00,WUHU216HW,2013-03-08 22:00:00,
2013-03-08 17:05:00,39.2,29.5,29.57,North,0,0.0,0.0,68,0.00,,,0.00,WUHU216HW,2013-03-08 22:05:00,
2013-03-08 17:30:00,39.2,30.6,29.58,North,0,0.0,0.0,71,0.00,,,0.00,WUHU216HW,2013-03-08 22:30:00,
2013-03-08 17:35:00,39.2,30.6,29.58,North,0,0.0,0.0,71,0.00,,,0.00,WUHU216HW,2013-03-08 22:35:00,
2013-03-08 18:00:00,37.1,30.3,29.60,North,0,0.0,0.0,76,0.00,,,0.00,WUHU216HW,2013-03-08 23:00:00,
2013-03-08 18:05:00,37.1,30.3,29.60,North,0,0.0,0.0,76,0.00,,,0.00,WUHU216HW,2013-03-08 23:05:00,
2013-03-08 18:30:00,37.4,30.2,29.60,North,0,0.0,0.0,75,0.00,,,0.00,WUHU216HW,2013-03-08 23:30:00,
2013-03-08 18:35:00,37.4,30.2,29.60,North,0,0.0,0.0,75,0.00,,,0.00,WUHU216HW,2013-03-08 23:35:00,
2013-03-08 19:00:00,38.7,29.3,29.61,North,0,0.0,0.0,69,0.00,,,0.00,WUHU216HW,2013-03-09 00:00:00,
2013-03-08 19:05:00,38.7,29.3,29.61,North,0,0.0,0.0,69,0.00,,,0.00,WUHU216HW,2013-03-09 00:05:00,
2013-03-08 19:30:00,38.0,29.4,29.62,North,0,0.0,0.0,71,0.00,,,0.00,WUHU216HW,2013-03-09 00:30:00,
2013-03-08 19:35:00,38.0,29.4,29.62,North,0,0.0,0.0,71,0.00,,,0.00,WUHU216HW,2013-03-09 00:35:00,
2013-03-08 20:00:00,38.7,29.0,29.63,North,0,0.0,0.0,68,0.00,,,0.00,WUHU216HW,2013-03-09 01:00:00,
2013-03-08 20:05:00,38.7,29.0,29.63,North,0,0.0,0.0,68,0.00,,,0.00,WUHU216HW,2013-03-09 01:05:00,
2013-03-08 20:30:00,39.1,26.6,29.63,North,0,0.0,0.0,61,0.00,,,0.00,WUHU216HW,2013-03-09 01:30:00,
2013-03-08 20:35:00,39.1,26.6,29.63,North,0,0.0,0.0,61,0.00,,,0.00,WUHU216HW,2013-03-09 01:35:00,
2013-03-08 21:00:00,39.2,26.5,29.64,North,0,0.0,0.0,60,0.00,,,0.00,WUHU216HW,2013-03-09 02:00:00,
2013-03-08 21:05:00,39.2,26.5,29.64,North,0,0.0,0.0,60,0.00,,,0.00,WUHU216HW,2013-03-09 02:05:00,
2013-03-08 21:30:00,38.2,26.7,29.65,North,0,0.0,0.0,63,0.00,,,0.00,WUHU216HW,2013-03-09 02:30:00,
2013-03-08 21:35:00,38.2,26.7,29.65,North,0,0.0,0.0,63,0.00,,,0.00,WUHU216HW,2013-03-09 02:35:00,
2013-03-08 22:00:00,37.1,26.7,29.66,North,0,0.0,0.0,66,0.00,,,0.00,WUHU216HW,2013-03-09 03:00:00,
2013-03-08 22:05:00,37.1,26.7,29.66,North,0,0.0,0.0,66,0.00,,,0.00,WUHU216HW,2013-03-09 03:05:00,
2013-03-08 22:30:00,36.0,27.2,29.66,North,0,0.0,0.0,70,0.00,,,0.00,WUHU216HW,2013-03-09 03:30:00,
2013-03-08 22:35:00,36.0,27.2,29.66,North,0,0.0,0.0,70,0.00,,,0.00,WUHU216HW,2013-03-09 03:35:00,
2013-03-08 23:00:00,36.4,26.8,29.66,North,0,0.0,0.0,68,0.00,,,0.00,WUHU216HW,2013-03-09 04:00:00,
2013-03-08 23:05:00,36.4,26.8,29.66,North,0,0.0,0.0,68,0.00,,,0.00,WUHU216HW,2013-03-09 04:05:00,
2013-03-08 23:30:00,36.9,25.5,29.65,North,0,0.0,0.0,63,0.00,,,0.00,WUHU216HW,2013-03-09 04:30:00,
2013-03-08 23:35:00,36.9,25.5,29.65,North,0,0.0,0.0,63,0.00,,,0.00,WUHU216HW,2013-03-09 04:35:00,